Location: Wapato
(46.4478°N, 120.4212°W)
Time: 01:48:48
(UTC+00:00)

Transit 2A - All Passes

Search period start: 14 May 2026 00:00
Search period end: 24 May 2026 00:00
Orbit: 594 x 950 km, 66.7° (Epoch: 13 May)

Date Brightness Start Highest point End Pass type
(mag) Time Alt. Az. Time Alt. Az. Time Alt. Az.
14 May - 00:55:51 10° SW 01:01:51 53° NW 01:07:25 10° NNE daylight
14 May - 02:42:37 10° WNW 02:46:08 16° NNW 02:49:29 10° N daylight
14 May - 06:15:14 10° N 06:17:25 12° NNE 06:19:32 10° NE visible
14 May - 07:57:06 10° NNW 08:01:57 43° NE 08:06:21 10° ESE visible
14 May - 09:40:36 10° NW 09:44:43 27° WSW 09:48:33 10° SSW visible
14 May - 22:38:02 10° SSE 22:42:42 23° ESE 22:47:10 10° ENE daylight
15 May - 00:19:11 10° SW 00:25:20 73° NW 00:31:04 10° NNE daylight
15 May - 02:05:03 10° W 02:09:18 20° NW 02:13:21 10° NNE daylight
15 May - 05:39:38 10° N 05:40:28 10° NNE 05:41:18 10° NNE visible
15 May - 07:20:48 10° NNW 07:25:19 31° NE 07:29:28 10° ESE visible
15 May - 09:03:50 10° NW 09:08:29 42° WSW 09:12:44 10° S visible
15 May - 22:03:07 10° SE 22:06:31 15° ESE 22:09:51 10° ENE daylight
15 May - 23:42:41 10° SSW 23:48:52 82° ESE 23:54:39 10° NE daylight
16 May - 01:27:40 10° W 01:32:33 25° NW 01:37:09 10° NNE daylight
16 May - 06:44:34 10° NNW 06:48:37 23° NE 06:52:23 10° E visible
16 May - 08:27:15 10° NW 08:32:11 66° WSW 08:36:39 10° SSE visible
16 May - 23:06:27 10° SSW 23:12:29 59° ESE 23:18:08 10° NE daylight
17 May - 00:50:29 10° WSW 00:55:52 32° NW 01:00:54 10° NNE daylight
17 May - 02:38:55 10° NW 02:40:39 11° NNW 02:42:21 10° N daylight
17 May - 06:08:23 10° N 06:11:51 18° NNE 06:15:06 10° ENE visible
17 May - 07:50:46 10° NNW 07:55:47 81° ENE 08:00:18 10° SE visible
17 May - 09:35:48 10° WNW 09:37:54 13° WSW 09:39:57 10° SW visible
17 May - 22:30:26 10° S 22:36:09 41° ESE 22:41:33 10° NE daylight
18 May - 00:13:28 10° WSW 00:19:15 43° NW 00:24:37 10° NNE daylight
18 May - 02:00:54 10° NW 02:03:44 14° NNW 02:06:28 10° N daylight
18 May - 05:32:18 10° N 05:35:00 14° NNE 05:37:35 10° ENE visible
18 May - 07:14:22 10° NNW 07:19:18 54° NE 07:23:46 10° SE visible
18 May - 08:58:17 10° WNW 09:01:48 20° WSW 09:05:07 10° SSW visible
18 May - 21:54:42 10° SSE 21:59:52 29° ESE 22:04:47 10° NE daylight
18 May - 23:36:40 10° SW 23:42:42 58° NW 23:48:17 10° NNE daylight
19 May - 01:23:10 10° WNW 01:26:52 17° NNW 01:30:23 10° N daylight
19 May - 04:56:24 10° N 04:58:06 11° NNE 04:59:45 10° NE visible
19 May - 06:38:02 10° NNW 06:42:43 38° NE 06:47:00 10° ESE visible
19 May - 08:21:21 10° NW 08:25:37 31° WSW 08:29:34 10° S visible
19 May - 21:19:23 10° SSE 21:23:39 20° ESE 21:27:45 10° ENE daylight
19 May - 23:00:03 10° SW 23:06:12 80° NW 23:11:54 10° NNE daylight
20 May - 00:45:39 10° W 00:50:04 21° NW 00:54:14 10° NNE daylight
20 May - 06:01:46 10° NNW 06:06:05 27° NE 06:10:03 10° E visible
20 May - 07:44:39 10° NW 07:49:21 49° WSW 07:53:40 10° S visible
20 May - 20:44:46 10° SE 20:47:30 13° ESE 20:50:10 10° ENE daylight
20 May - 22:23:39 10° SSW 22:29:46 74° ESE 22:35:28 10° NE daylight
21 May - 00:08:20 10° W 00:13:20 27° NW 00:18:01 10° NNE daylight
21 May - 05:25:33 10° NNW 05:29:21 21° NE 05:32:54 10° E visible
21 May - 07:08:06 10° NW 07:13:01 77° WSW 07:17:30 10° SSE visible
21 May - 21:47:27 10° S 21:53:24 52° ESE 21:58:56 10° NE daylight
21 May - 23:31:12 10° WSW 23:36:40 35° NW 23:41:46 10° NNE daylight
22 May - 01:19:20 10° NW 01:21:21 12° NNW 01:23:19 10° N daylight
22 May - 04:49:25 10° N 04:52:33 16° NNE 04:55:31 10° ENE visible
22 May - 06:31:39 10° NNW 06:36:36 71° NE 06:41:05 10° SE visible
22 May - 08:16:13 10° WNW 08:18:50 15° WSW 08:21:22 10° SW visible
22 May - 21:11:33 10° S 21:17:04 36° ESE 21:22:17 10° NE daylight
22 May - 22:54:14 10° WSW 23:00:04 47° NW 23:05:28 10° NNE daylight
23 May - 00:41:24 10° WNW 00:44:26 14° NNW 00:47:21 10° N daylight
23 May - 04:13:23 10° N 04:15:41 13° NNE 04:17:54 10° NE visible
23 May - 05:55:16 10° NNW 06:00:05 48° NE 06:04:28 10° SE visible
23 May - 07:38:57 10° WNW 07:42:43 23° WSW 07:46:14 10° SSW visible
23 May - 20:35:56 10° SSE 20:40:48 25° ESE 20:45:26 10° NE daylight
23 May - 22:17:30 10° SW 22:23:33 65° NW 22:29:08 10° NNE daylight
